OE9FWV Weather Reports


time (UTC)temp
F
wind
direction
speed
knots
gust
knots
rain 1hr
in
rain 24hr
in
rain mn
in
humidity
%
barometer
mb
20260507002726 51 352 0.0 0.9 0.00 0.05 0.00 91 1011.2
20260507001725 51 352 0.0 0.0 0.00 0.04 0.00 91 1011.2
20260507000719 51 352 0.0 0.9 0.00 0.04 0.00 91 1011.2
20260506235904 51 352 0.0 0.0 0.00 0.04 0.00 90 1011.3
20260506235710 51 352 0.0 0.0 0.00 0.04 0.00 90 1011.3
20260506234703 51 352 0.0 0.0 0.00 0.03 0.00 90 1011.3
20260506233703 51 352 0.0 0.0 0.04 0.03 0.00 89 1011.4
20260506232703 51 352 0.0 0.0 0.17 0.03 0.00 89 1011.3
20260506230655 51 352 0.0 0.9 0.00 0.00 0.00 88 1011.3
20260506225652 51 353 1.7 1.7 0.00 0.00 0.00 88 1011.2
20260506224652 51 29 1.7 1.7 0.00 0.00 0.00 88 1011.2
20260506214634 51 30 0.0 0.0 0.00 0.00 0.00 86 1010.9
20260506213630 51 30 0.0 0.0 0.00 0.00 0.00 86 1010.8
20260506212627 51 30 0.0 0.0 0.00 0.00 0.00 86 1010.9
20260506211624 51 30 0.0 0.0 0.00 0.00 0.00 86 1010.9
20260506210622 52 30 0.0 0.0 0.00 0.00 0.00 85 1010.9
20260506204616 52 30 0.0 0.0 0.00 0.00 0.00 85 1010.7
20260506203613 52 30 0.0 0.0 0.00 0.00 0.00 85 1010.7
20260506202608 52 30 0.0 0.0 0.00 0.00 0.00 85 1010.7
20260506195556 52 30 0.0 0.0 0.00 0.00 0.00 85 1010.4
20260506194556 52 30 0.0 0.0 0.00 0.00 0.00 84 1010.2
20260506191541 52 30 0.0 0.0 0.00 0.00 0.00 81 1009.8
20260506190541 53 30 0.0 0.0 0.00 0.00 0.00 81 1009.8
20260506185541 53 30 0.0 0.0 0.00 0.00 0.00 81 1009.4
20260506184541 53 30 0.0 0.0 0.00 0.00 0.00 81 1009.4
20260506183535 53 30 0.0 0.0 0.00 0.00 0.00 81 1009.1
20260506182526 53 30 0.0 0.0 0.00 0.00 0.00 80 1009.0
20260506181521 54 30 0.0 0.0 0.00 0.00 0.00 80 1009.1
20260506180518 54 30 0.0 0.0 0.00 0.00 0.00 80 1008.8
20260506175514 54 30 0.0 0.0 0.00 0.00 0.00 80 1008.7
20260506174506 54 30 0.0 0.9 0.00 0.00 0.00 80 1008.8
20260506173506 53 30 0.0 1.7 0.00 0.00 0.00 80 1008.6
20260506171500 54 10 4.3 6.1 0.00 0.00 0.00 80 1008.5
20260506170455 54 2 4.3 7.0 0.00 0.00 0.00 79 1008.5
20260506165451 55 329 2.6 9.6 0.00 0.00 0.00 80 1008.3
20260506162443 55 301 4.3 7.0 0.00 0.00 0.00 78 1007.7
20260506161436 54 119 2.6 2.6 0.00 0.00 0.00 78 1007.6
20260506160431 53 101 7.0 7.0 0.00 0.00 0.00 81 1007.8
20260506155427 53 81 6.1 7.0 0.00 0.00 0.00 81 1007.8
20260506154418 53 29 4.3 8.7 0.00 0.00 0.00 82 1008.1
20260506153406 52 185 1.7 1.7 0.00 0.00 0.00 82 1008.3
20260506152406 52 185 0.9 5.2 0.00 0.00 0.00 80 1008.3
20260506151404 54 175 7.0 13.0 0.00 0.00 0.00 76 1008.2
20260506150358 56 239 14.8 15.6 0.00 0.00 0.00 67 1007.5
20260506145354 58 254 13.9 13.9 0.00 0.00 0.00 61 1007.0
20260506144350 59 75 7.8 10.4 0.00 0.00 0.00 64 1006.7
20260506143342 61 126 8.7 12.2 0.00 0.00 0.00 61 1006.4
20260506142338 63 283 1.7 1.7 0.00 0.00 0.00 57 1005.9
20260506141338 64 293 5.2 8.7 0.00 0.00 0.00 55 1005.6
20260506140333 66 354 4.3 10.4 0.00 0.00 0.00 54 1005.3
20260506135324 67 324 7.8 15.6 0.00 0.00 0.00 59 1005.4
20260506133314 67 332 3.5 9.6 0.00 0.00 0.00 61 1005.1
20260506130305 69 11 4.3 7.0 0.00 0.00 0.00 58 1005.0
20260506125301 68 336 6.1 6.1 0.00 0.00 0.00 61 1004.9
20260506124257 65 339 3.5 6.1 0.00 0.00 0.00 63 1004.9
20260506123248 64 352 0.9 3.5 0.00 0.00 0.00 66 1005.0
20260506122244 62 352 1.7 4.3 0.00 0.00 0.00 68 1005.1
20260506121239 61 353 3.5 4.3 0.00 0.00 0.00 72 1004.8
20260506120238 60 11 5.2 5.2 0.00 0.00 0.00 71 1005.0
20260506115238 61 347 1.7 2.6 0.00 0.00 0.00 71 1005.4
20260506114235 61 346 0.9 3.5 0.00 0.00 0.00 71 1005.4
20260506113229 61 345 0.9 4.3 0.00 0.00 0.00 70 1005.3
20260506104203 61 334 2.6 7.0 0.00 0.00 0.00 68 1005.2
20260506103203 62 352 3.5 4.3 0.00 0.00 0.00 66 1005.2
20260506102159 63 326 4.3 5.2 0.00 0.00 0.00 67 1005.3
20260506101155 63 322 4.3 6.1 0.00 0.00 0.00 66 1005.4
20260506100151 64 337 3.5 4.3 0.00 0.00 0.00 65 1005.4
20260506095151 64 322 2.6 3.5 0.00 0.00 0.00 65 1005.6
20260506094151 64 336 3.5 4.3 0.00 0.00 0.00 67 1005.6
20260506093148 63 335 4.3 6.1 0.00 0.00 0.00 67 1005.6
20260506091145 62 320 0.9 4.3 0.00 0.00 0.00 70 1005.6
20260506090138 61 308 0.9 2.6 0.00 0.00 0.00 71 1005.6
20260506085130 60 302 0.9 3.5 0.00 0.00 0.00 74 1005.6
20260506084129 59 271 4.3 4.3 0.00 0.00 0.00 78 1005.7
20260506083121 57 266 0.9 0.9 0.00 0.00 0.00 77 1005.5
20260506082113 57 266 0.0 0.0 0.00 0.00 0.00 77 1006.0
20260506081110 57 266 0.0 0.0 0.00 0.00 0.00 77 1005.8
20260506073057 55 266 0.0 0.0 0.00 0.00 0.00 81 1005.8
20260506071055 54 266 0.0 0.0 0.00 0.00 0.00 82 1005.6
20260506062045 53 266 0.0 0.0 0.00 0.00 0.00 83 1005.9
20260506061042 53 266 0.0 0.0 0.00 0.00 0.00 83 1006.2
20260506051020 51 266 0.0 0.0 0.00 0.00 0.00 85 1006.2
20260506041955 51 266 0.0 0.0 0.00 0.00 0.00 85 1006.7
20260506040946 51 266 0.0 0.0 0.00 0.00 0.00 85 1006.7
20260506033936 51 266 0.0 0.0 0.00 0.00 0.00 84 1007.4
20260506025913 51 266 0.0 0.0 0.00 0.00 0.00 83 1007.5
20260506024906 52 266 0.0 0.0 0.00 0.00 0.00 83 1007.7
20260506023906 52 266 0.0 0.0 0.00 0.00 0.00 82 1008.0
20260506022905 52 266 0.0 0.0 0.00 0.00 0.00 82 1008.1
20260506020848 52 266 0.0 0.0 0.00 0.00 0.00 82 1008.2
20260506015847 52 266 0.0 0.0 0.00 0.00 0.00 82 1008.3
20260506013837 52 266 0.0 0.0 0.00 0.00 0.00 81 1008.3
20260506012834 52 266 0.0 0.0 0.00 0.00 0.00 81 1008.4
20260506011826 52 266 0.0 0.0 0.00 0.00 0.00 81 1008.4
20260506004814 52 266 0.0 0.0 0.00 0.00 0.00 81 1008.5
20260506003809 53 266 0.0 0.0 0.00 0.00 0.00 81 1008.3